Skagway, AK

9:44 AM AKST on February 27, 2017 (GMT -0900)
Skagway

Weather History for PAGY - December, 2012

Change the Weather History Date:

Monday, December 24, 2012

  Actual Average Record
Temperature  
Mean Temperature 14 °F -  
Max Temperature 15 °F 31 °F 51 °F (1985)
Min Temperature 12 °F 22 °F 6 °F (1965)
Degree Days  
Heating Degree Days 52    
Moisture  
Dew Point -5 °F    
Average Humidity 44    
Maximum Humidity 46    
Minimum Humidity 43    
Precipitation  
Precipitation 0.00 in - - ()
Sea Level Pressure  
Sea Level Pressure 30.19 in    
Wind  
Wind Speed 21 mph (NE)    
Max Wind Speed 37 mph    
Max Gust Speed 54 mph    
Visibility 10 miles    
Events Snow    
Averages and records for this station are not official NWS values.
T = Trace of Precipitation, MM = Missing Value Source: NWS Daily Summary

Daily Weather History Graph

Daily Weather History Graph

Search for Another Location

Airport or City:

Trip Planner

Search our weather history database for the weather conditions in past years. The results will help you decide how hot, cold, wet, or windy it might be!

Date:

Astronomy

Dec. 24, 2012 Rise Set
Actual Time 8:59 AM AKST 3:03 PM AKST
Civil Twilight 8:03 AM AKST 3:58 PM AKST
Nautical Twilight 7:07 AM AKST 4:54 PM AKST
Astronomical Twilight 6:17 AM AKST 5:45 PM AKST
Moon 12:55 PM AKST (12/24) 5:22 AM AKST (12/24)
Length of Visible Light 7h 55m
Length of Day
6h 03m
Waxing Gibbous, 89% of the Moon is Illuminated
Dec 24
Waxing Gibbous
Dec 28
Full
Jan 4
Last Quarter
Jan 11
New
Jan 18
First Quarter

Hourly Weather History & Observations

Time (AKST) Temp. Windchill Dew Point Humidity Pressure Visibility Wind Dir Wind Speed Gust Speed Precip Events Conditions
12:53 AM 12.0 °F -5.1 °F -6.0 °F 44% 30.12 in 10.0 mi NE 17.3 mph 28.8 mph N/A   Overcast
1:53 AM 12.0 °F -5.1 °F -5.1 °F 46% 30.15 in 7.0 mi NE 17.3 mph 24.2 mph 0.00 in Snow Light Snow
3:53 AM 12.0 °F -6.5 °F -6.0 °F 44% 30.18 in 10.0 mi NE 20.7 mph 28.8 mph N/A   Overcast
4:53 AM 12.9 °F -4.4 °F -6.0 °F 43% 30.18 in 10.0 mi NE 18.4 mph 26.5 mph N/A   Overcast
5:53 AM 12.9 °F -4.4 °F -6.0 °F 43% 30.18 in 10.0 mi NE 18.4 mph 33.4 mph N/A   Overcast
6:53 AM 12.9 °F -6.1 °F -5.1 °F 45% 30.19 in 10.0 mi NE 23.0 mph 32.2 mph N/A   Overcast
7:53 AM 12.9 °F -6.5 °F -5.1 °F 45% 30.20 in 10.0 mi NE 24.2 mph 36.8 mph N/A   Overcast
8:53 AM 14.0 °F -3.0 °F -5.1 °F 43% 30.22 in 10.0 mi NE 18.4 mph 40.3 mph N/A   Overcast
9:53 AM 12.9 °F -5.7 °F -5.1 °F 45% 30.23 in 10.0 mi NE 21.9 mph 32.2 mph N/A   Overcast
10:53 AM 14.0 °F -3.4 °F -5.1 °F 43% 30.25 in 10.0 mi NE 19.6 mph 33.4 mph N/A   Overcast
11:53 AM 14.0 °F -4.3 °F -5.1 °F 43% 30.24 in 10.0 mi NE 21.9 mph 38.0 mph N/A   Overcast
12:53 PM 14.0 °F -4.7 °F -4.0 °F 45% 30.23 in 10.0 mi NE 23.0 mph 33.4 mph N/A   Overcast
1:53 PM 15.1 °F -2.9 °F -4.0 °F 43% 30.23 in 10.0 mi NE 21.9 mph 36.8 mph N/A   Overcast
2:53 PM 14.0 °F -4.7 °F -4.0 °F 45% 30.21 in 9.0 mi NE 23.0 mph 35.7 mph 0.00 in Snow Light Snow
3:53 PM 14.0 °F -4.7 °F -4.0 °F 45% 30.20 in 10.0 mi NE 23.0 mph 35.7 mph N/A   Clear
4:53 PM 14.0 °F -5.1 °F -5.1 °F 43% 30.19 in 10.0 mi NE 24.2 mph 40.3 mph N/A   Clear
5:53 PM 12.9 °F -9.2 °F -6.0 °F 43% 30.17 in 9.0 mi NE 33.4 mph 49.5 mph 0.00 in Snow Light Snow
6:53 PM 12.9 °F -7.3 °F -6.0 °F 43% 30.17 in 10.0 mi NE 26.5 mph 44.9 mph 0.00 in Snow Light Snow
7:53 PM 12.0 °F -10.4 °F -6.0 °F 44% 30.15 in 10.0 mi NE 33.4 mph 44.9 mph 0.00 in   Clear
8:53 PM 12.9 °F -6.9 °F -6.0 °F 43% 30.16 in 10.0 mi NE 25.3 mph 42.6 mph 0.00 in   Clear
9:53 PM 12.9 °F -5.7 °F -5.1 °F 45% 30.17 in 9.0 mi NE 21.9 mph 40.3 mph 0.00 in Snow Light Snow
10:53 PM 12.0 °F -8.5 °F -6.0 °F 44% 30.16 in 9.0 mi NE 26.5 mph 48.3 mph 0.00 in Snow Light Snow
11:12 PM 12.2 °F -11.0 °F -5.8 °F 45% 30.13 in 9.0 mi NE 36.8 mph 54.1 mph 0.00 in Snow Light Snow
11:53 PM 12.9 °F -4.4 °F -6.0 °F 43% 30.16 in 10.0 mi NE 18.4 mph 35.7 mph 0.00 in   Clear